User: anonymous
Location: Caltech
(34.1382°N, 118.1253°W)
Time: 03:14:35
(UTC-07:00)
Language:

OAO 1 Rocket - Orbit

View from above orbital plane
View from above orbital plane
View from above satellite
View from above satellite

Ground track
Ground track

The orbit data is extracted from the following two-line orbital elements,

1 02144U 66031B   14105.13148934  .00000349  00000-0  11062-3 0  6010
2 02144 035.0415 137.9647 0008629 299.6035 060.3794 14.42074613520667
Epoch (UTC): 15 April 2014 03:09:20
Eccentricity: 0.0008629
inclination: 35.0415°
perigee height: 745 km
apogee height: 758 km
right ascension of ascending node: 137.9647°
argument of perigee: 299.6035°
revolutions per day: 14.42074613
mean anomaly at epoch: 60.3794°
orbit number at epoch: 52066

The dashed part of the orbit path shows where the satellite is in the earth's shadow,  

DLR